[[{"header":{"parameterUnit":"m.s-1","parameterCategory":2,"la1":30.2991,"la2":30.254,"lo1":-89.0895,"lo2":-89.0444,"dy":0.0017,"dx":0.0017,"nx":28,"ny":28,"refTime":"2023-04-22T21:00:00:Z","depth":"0","parameterNumber":2,"parameterNumberName":"U-component_of_CURRENTS"},"data":[0,0,0,0,0,0,0,0,0,0,0,0,0,0,0,0,0,0,0,0,0,0,0,0,0,0,0,0,0,0,0,0,0,0,0,0,0,0,0,0,0,0,0,0,0,0,0,0,0,0,0,0,0,0,0,0,0,0,0.3102,0.3103,0,0.3161,0.3162,0.3163,0.319,0.319,0.319,0.319,0.3213,0.3214,0.3214,0,0,0,0,0,0,0,0,0,0,0,0,0,0.3244,0.324,0.3102,0.3103,0.3104,0.3161,0.3162,0.3163,0.319,0.319,0.319,0.319,0.3213,0.3214,0.3214,0,0,0,0,0,0,0,0,0,0,0,0,0,0.323,0.3238,0.3102,0.3124,0.3127,0.3161,0.3162,0.3163,0.319,0.319,0.319,0.319,0.3213,0.3214,0.3215,0.3222,0,0,0.3218,0.3218,0,0,0,0,0,0,0,0,0.323,0.3224,0.312,0.3123,0.3126,0.3168,0.3221,0.3181,0.319,0.3166,0.319,0.319,0.3195,0.3197,0.3209,0.3223,0.3224,0.3218,0.3218,0.3219,0.3219,0,0,0,0,0,0,0,0.3231,0.3223,0.3126,0.3121,0.3124,0.3211,0.3206,0.3215,0.3179,0.3168,0.317,0.3177,0.3196,0.3208,0.321,0.3224,0.3218,0.3219,0.3219,0.322,0.3283,0.3284,0,0,0,0,0,0,0.3211,0.3222,0.3124,0.3127,0.3179,0.3207,0.3202,0.3155,0.318,0.3184,0.3177,0.3178,0.3206,0.3208,0.321,0.328,0.3219,0.322,0.322,0.3282,0.3283,0.3284,0,0,0,0,0,0,0.3212,0.3199,0.3121,0.3181,0.3177,0.3203,0.315,0.3156,0.317,0.3187,0.3191,0.3186,0.3206,0.3209,0.3226,0.3278,0.322,0.3221,0.328,0.3282,0.3284,0.338,0,0,0,0,0,0,0.3215,0.3198,0.3164,0.3177,0.3172,0.3167,0.3151,0.3157,0.3174,0.3177,0.3196,0.3198,0.3207,0.3225,0.3227,0.3279,0.3222,0.3279,0.3281,0.3283,0.3375,0.3385,0.3393,0,0,0,0,0,0.3219,0.3179,0.316,0.315,0.3119,0.3169,0.3176,0.3197,0.3175,0.3204,0.3199,0.3198,0.324,0.3226,0.3229,0.3282,0.3278,0.3281,0.3283,0.3371,0.3383,0.3392,0,0,0,0,0,0,0.3209,0.3178,0.3158,0.3102,0.3142,0.3174,0.3196,0.3196,0.3214,0.3208,0.3205,0.3209,0.3251,0.3239,0.3223,0.3303,0.3261,0.3264,0.3328,0.3338,0.3347,0.3386,0.3223,0,0,0,0,0,0.3189,0.3157,0.316,0.3125,0.3141,0.3163,0.3182,0.3198,0.3215,0.3223,0.3237,0.3243,0.3263,0.3276,0.3295,0.3327,0.3362,0.3363,0.3371,0.3379,0.3411,0.3505,0.3527,0.3292,0.3292,0.3292,0,0,0.3174,0.3156,0.3134,0.3125,0.315,0.3191,0.3176,0.3214,0.3252,0.3221,0.3272,0.3277,0.3277,0.3329,0.3346,0.3325,0.3461,0.3382,0.3389,0.3417,0.3511,0.3534,0.3555,0.3294,0.3294,0.3293,0,0,0.3184,0.3117,0.3125,0.3159,0.3201,0.3215,0.3224,0.3265,0.329,0.3331,0.3322,0.3361,0.3378,0.3415,0.3423,0.3485,0.3504,0.3477,0.3557,0.3649,0.367,0.3689,0.3758,0.3783,0.3481,0.3481,0.3481,0,0.3174,0.3159,0.3147,0.3191,0.3222,0.3223,0.3274,0.3301,0.3346,0.3385,0.3361,0.3433,0.3434,0.3509,0.3534,0.3514,0.3553,0.352,0.3665,0.3685,0.3703,0.3769,0.3795,0.3486,0.3485,0.3485,0.3484,0,0.3219,0.3213,0.3232,0.3266,0.3305,0.3347,0.3384,0.3425,0.3436,0.3476,0.3559,0.3568,0.3618,0.3622,0.3596,0.372,0.3702,0.3669,0.3648,0.3733,0.3796,0.3822,0.3493,0.3491,0.349,0.3488,0,0,0.318,0.3246,0.3252,0.3288,0.3345,0.338,0.3449,0.3527,0.3576,0.3633,0.372,0.3768,0.3782,0.3792,0.3777,0.3852,0.4004,0.3817,0.382,0.3903,0.4203,0.4098,0.4115,0.3998,0.4003,0.4007,0.4194,0,0.3225,0.3301,0.3329,0.3407,0.3449,0.3487,0.3552,0.3625,0.3673,0.3757,0.3808,0.3871,0.384,0.3859,0.3941,0.3986,0.4077,0.3956,0.4093,0.4098,0.4009,0.4143,0.3882,0.4019,0.4219,0.4223,0.4226,0,0.3268,0.331,0.339,0.3475,0.3499,0.3541,0.3639,0.3705,0.3821,0.3871,0.3962,0.3987,0.4109,0.4049,0.4234,0.4156,0.4203,0.4236,0.4243,0.4136,0.4041,0.3966,0.4058,0.3938,0.4265,0.4262,0.426,0,0.3261,0.3352,0.3406,0.3437,0.3533,0.3578,0.3628,0.3739,0.3822,0.394,0.4017,0.4139,0.4213,0.4308,0.438,0.4321,0.4574,0.4494,0.4454,0.4446,0.4249,0.4214,0.4257,0.4653,0.4652,0.4652,0.4651,0,0.3293,0.3342,0.3396,0.3429,0.3505,0.3572,0.3671,0.3744,0.3874,0.3988,0.4068,0.4172,0.4287,0.4423,0.4461,0.4556,0.4653,0.4519,0.451,0.4269,0.4236,0.4137,0.4086,0.4659,0.4657,0.4656,0.4654,0,0.3303,0.3335,0.3404,0.3482,0.3505,0.356,0.3691,0.3769,0.3886,0.4036,0.4083,0.426,0.4418,0.4526,0.469,0.466,0.4604,0.4749,0.4448,0.4399,0.4177,0.4139,0.4094,0.3982,0.4725,0.4724,0.4723,0,0.3317,0.3347,0.3423,0.3454,0.3488,0.357,0.3633,0.3759,0.3848,0.408,0.4153,0.4351,0.4458,0.4664,0.4648,0.4717,0.4597,0.4506,0.4339,0.4179,0.4133,0.4001,0.3901,0.412,0.4114,0.4109,0.4105,0,0.3354,0.3372,0.3426,0.3472,0.3521,0.3596,0.3685,0.3755,0.3915,0.4031,0.4201,0.4302,0.4466,0.4399,0.447,0.4468,0.4243,0.4407,0.433,0.3756,0.353,0.3409,0.3982,0.4063,0.4067,0.407,0.4072,0.4074,0.3369,0.341,0.3454,0.3486,0.3542,0.3585,0.3595,0.3695,0.3801,0.3884,0.4095,0.4111,0.4128,0.4162,0.4154,0.3929,0.3986,0.3751,0.3753,0.3664,0.3439,0.3917,0.3921,0.3924,0.3927,0.3929,0.3932,0,0.3376,0.3414,0.346,0.3482,0.3481,0.3527,0.3595,0.356,0.3587,0.3676,0.3752,0.3687,0.3592,0.3582,0.3434,0.3288,0.3145,0.3195,0.2944,0.2906,0.3406,0.3258,0.3006,0.3007,0.3007,0.3007,0.3007,0.3007,0.3383,0.3414,0.3416,0.3379,0.338,0.3312,0.33,0.3267,0.3275,0.3172,0.3067,0.3101,0.3182,0.3098,0.2906,0.283,0.2641,0.248,0.258,0.2906,0.2957,0.3005,0.2855,0.2523,0.2523,0.1895,0.189,0.1886]},{"header":{"parameterUnit":"m.s-1","parameterCategory":2,"la1":30.2991,"la2":30.254,"lo1":-89.0895,"lo2":-89.0444,"dy":0.0017,"dx":0.0017,"nx":28,"ny":28,"refTime":"2023-04-22T21:00:00:Z","depth":"0","parameterNumber":3,"parameterNumberName":"V-component_of_CURRENTS"},"data":[0,0,0,0,0,0,0,0,0,0,0,0,0,0,0,0,0,0,0,0,0,0,0,0,0,0,0,0,0,0,0,0,0,0,0,0,0,0,0,0,0,0,0,0,0,0,0,0,0,0,0,0,0,0,0,0,0,0,-0.0129,-0.0129,0,-0.0143,-0.0143,-0.0143,-0.0181,-0.0181,-0.0182,-0.0182,-0.0241,-0.0242,-0.0243,0,0,0,0,0,0,0,0,0,0,0,0,0,-0.0228,-0.0226,-0.0129,-0.0129,-0.0129,-0.0143,-0.0143,-0.0143,-0.018,-0.0181,-0.0182,-0.0183,-0.0241,-0.0242,-0.0243,0,0,0,0,0,0,0,0,0,0,0,0,0,-0.0209,-0.0225,-0.0129,-0.0148,-0.015,-0.0143,-0.0143,-0.0144,-0.018,-0.0181,-0.0182,-0.0183,-0.0241,-0.0242,-0.0243,-0.0234,0,0,-0.0248,-0.0249,0,0,0,0,0,0,0,0,-0.021,-0.0206,-0.0145,-0.0147,-0.0148,-0.0159,-0.0199,-0.0175,-0.018,-0.0171,-0.0182,-0.0184,-0.0216,-0.022,-0.0222,-0.0237,-0.0239,-0.0248,-0.0249,-0.025,-0.025,0,0,0,0,0,0,0,-0.0211,-0.0206,-0.0137,-0.0145,-0.0147,-0.0187,-0.0185,-0.0195,-0.019,-0.0172,-0.0174,-0.0172,-0.0218,-0.0221,-0.0224,-0.024,-0.0248,-0.0249,-0.025,-0.0251,-0.0244,-0.0243,0,0,0,0,0,0,-0.0199,-0.0206,-0.0136,-0.0137,-0.018,-0.0184,-0.0182,-0.0156,-0.0189,-0.0194,-0.0171,-0.0174,-0.0218,-0.0222,-0.0226,-0.0199,-0.025,-0.0251,-0.0252,-0.0245,-0.0244,-0.0243,0,0,0,0,0,0,-0.0201,-0.0192,-0.0136,-0.0172,-0.0168,-0.018,-0.0152,-0.0156,-0.0161,-0.0188,-0.0195,-0.0172,-0.0219,-0.0224,-0.0221,-0.0203,-0.0252,-0.0253,-0.0246,-0.0245,-0.0243,-0.0157,0,0,0,0,0,0,-0.0203,-0.0192,-0.0172,-0.017,-0.0165,-0.0123,-0.0151,-0.0156,-0.0157,-0.0161,-0.0191,-0.0197,-0.022,-0.0219,-0.0223,-0.0206,-0.0254,-0.0248,-0.0246,-0.0244,-0.0161,-0.0152,-0.0145,0,0,0,0,0,-0.0206,-0.0171,-0.017,-0.0162,-0.0135,-0.0122,-0.0123,-0.0139,-0.0156,-0.0149,-0.0164,-0.0196,-0.021,-0.0218,-0.0224,-0.0207,-0.0249,-0.0246,-0.0244,-0.0165,-0.0154,-0.0145,0,0,0,0,0,0,-0.0198,-0.0172,-0.017,-0.0127,-0.0122,-0.0128,-0.012,-0.0134,-0.014,-0.0143,-0.0178,-0.0184,-0.0176,-0.0201,-0.021,-0.0199,-0.0237,-0.0235,-0.0175,-0.0165,-0.0157,-0.0118,-0.0255,0,0,0,0,0,-0.0186,-0.0156,-0.0142,-0.0109,-0.0101,-0.0111,-0.0109,-0.0116,-0.0121,-0.0126,-0.0149,-0.0166,-0.0169,-0.0174,-0.0186,-0.0176,-0.018,-0.017,-0.0162,-0.0155,-0.0127,-0.0117,-0.0105,-0.0235,-0.0235,-0.0235,0,0,-0.0174,-0.0156,-0.0139,-0.0107,-0.0104,-0.0074,-0.0112,-0.0099,-0.0077,-0.013,-0.0114,-0.0139,-0.016,-0.0146,-0.0146,-0.0166,-0.0121,-0.0152,-0.0146,-0.0121,-0.0113,-0.01,-0.0089,-0.0233,-0.0233,-0.0234,0,0,-0.0136,-0.0116,-0.008,-0.0068,-0.0053,-0.0051,-0.0044,-0.0046,-0.0049,-0.0033,-0.0065,-0.0067,-0.0085,-0.0087,-0.009,-0.0044,-0.0079,-0.0064,0.0009,0.0018,0.0029,0.0039,0.005,0.006,-0.0061,-0.0061,-0.006,0,-0.0124,-0.0068,-0.0071,-0.0034,-0.0013,-0.0034,0.001,0.001,0.0006,0.0019,-0.0016,-0.0013,-0.0046,-0.0006,0.0003,-0.0023,-0.0026,-0.0026,0.003,0.004,0.0048,0.0057,0.0067,-0.0056,-0.0057,-0.0057,-0.0057,0,-0.0057,-0.0017,0.0005,0.0053,0.0072,0.0105,0.0113,0.0124,0.0113,0.0114,0.0139,0.0104,0.011,0.0088,0.006,0.0105,0.008,0.0039,0.001,0.0067,0.0072,0.0081,-0.005,-0.0051,-0.0053,-0.0054,0,0,-0.0013,0.0044,0.0052,0.009,0.0124,0.0153,0.0194,0.0236,0.0273,0.0256,0.0308,0.0288,0.0261,0.0257,0.0213,0.0214,0.0255,0.0156,0.0154,0.0176,0.0282,0.0229,0.0233,0.022,0.0222,0.0223,0.0261,0,0.0044,0.0129,0.0142,0.0226,0.0275,0.0278,0.0322,0.0351,0.036,0.0397,0.0377,0.04,0.0328,0.0328,0.0324,0.0275,0.0283,0.025,0.0217,0.0217,0.0169,0.0243,0.0218,0.0247,0.0269,0.0271,0.0272,0,0.0112,0.0162,0.0252,0.0326,0.0349,0.0391,0.0467,0.0503,0.0544,0.0549,0.0571,0.0547,0.0564,0.048,0.0461,0.0441,0.038,0.0334,0.0333,0.0266,0.0181,0.0192,0.0262,0.0104,0.0285,0.0284,0.0283,0,0.0153,0.0241,0.0317,0.0344,0.042,0.0462,0.0503,0.0552,0.0598,0.0649,0.0688,0.0693,0.0707,0.0646,0.0549,0.0508,0.052,0.0446,0.0352,0.0347,0.0313,0.0302,0.0237,0.0445,0.0445,0.0445,0.0445,0,0.0214,0.0273,0.0343,0.0386,0.0481,0.0516,0.0609,0.0642,0.0709,0.0794,0.077,0.0844,0.0748,0.0735,0.0621,0.0532,0.058,0.0398,0.0365,0.034,0.0331,0.0179,0.0098,0.0446,0.0446,0.0446,0.0445,0,0.024,0.0286,0.0373,0.0464,0.0501,0.0564,0.0668,0.0737,0.0788,0.0902,0.0928,0.0974,0.0976,0.0869,0.0785,0.0636,0.0447,0.0489,0.0468,0.0431,0.0162,0.0088,0.0004,-0.0063,0.0396,0.0395,0.0395,0,0.026,0.0309,0.0419,0.0479,0.0521,0.0618,0.0693,0.0765,0.0846,0.0996,0.1066,0.1115,0.1186,0.1046,0.0811,0.0631,0.0468,0.0434,0.0342,0.0175,0.0068,-0.0003,-0.0059,0.0335,0.0334,0.0333,0.0332,0,0.0294,0.0326,0.0399,0.0521,0.0611,0.0714,0.0828,0.0904,0.1018,0.1147,0.1326,0.1406,0.1288,0.1118,0.083,0.0676,0.0305,0.0405,0.0248,0.0043,-0.005,-0.014,0.0278,0.0324,0.0325,0.0325,0.0326,0.0326,0.0316,0.0364,0.0464,0.0579,0.0685,0.0817,0.0914,0.106,0.1236,0.1453,0.151,0.1669,0.1351,0.0988,0.075,0.0247,0.0265,0.0061,-0.0003,-0.0051,-0.0153,0.0245,0.023,0.023,0.0231,0.0231,0.0231,0,0.0363,0.0426,0.0526,0.067,0.079,0.0841,0.1019,0.1138,0.1374,0.1589,0.177,0.1701,0.1321,0.09,0.0225,-0.0123,-0.0236,-0.03,-0.0403,-0.0431,-0.0058,-0.0101,-0.0208,-0.0208,-0.0208,-0.0208,-0.0208,-0.0207,0.0397,0.0494,0.0545,0.0743,0.0848,0.1019,0.1127,0.1323,0.1501,0.1763,0.1875,0.1928,0.1576,0.0444,-0.0334,-0.05,-0.0709,-0.0768,-0.0855,-0.0616,-0.0588,-0.0561,-0.0622,-0.0836,-0.0837,-0.1212,-0.1216,-0.1218]}],[{"header":{"parameterUnit":"m.s-1","parameterCategory":2,"la1":30.2991,"la2":30.254,"lo1":-89.0895,"lo2":-89.0444,"dy":0.0017,"dx":0.0017,"nx":28,"ny":28,"refTime":"2023-04-22T21:00:00:Z","depth":"2","parameterNumber":2,"parameterNumberName":"U-component_of_CURRENTS"},"data":[0,0,0,0,0,0,0,0,0,0,0,0,0,0,0,0,0,0,0,0,0,0,0,0,0,0,0,0,0,0,0,0,0,0,0,0,0,0,0,0,0,0,0,0,0,0,0,0,0,0,0,0,0,0,0,0,0,0,0.2643,0.2643,0,0.2679,0.2679,0.2679,0.269,0.269,0.2689,0.2689,0.2682,0.2682,0.2682,0,0,0,0,0,0,0,0,0,0,0,0,0,0.2618,0.2618,0.2643,0.2643,0.2644,0.2679,0.2679,0.2679,0.269,0.269,0.2689,0.2689,0.2682,0.2682,0.2682,0,0,0,0,0,0,0,0,0,0,0,0,0,0.2638,0.2618,0.2643,0.2654,0.2655,0.2679,0.2679,0.268,0.269,0.269,0.2689,0.2689,0.2682,0.2682,0.2682,0.2684,0,0,0.2682,0.2681,0,0,0,0,0,0,0,0,0.2636,0.2638,0.2652,0.2653,0.2655,0.2681,0.2668,0.2679,0.269,0.2675,0.2689,0.2689,0.2679,0.2679,0.2685,0.2683,0.2683,0.2682,0.2681,0.2681,0.2681,0,0,0,0,0,0,0,0.2635,0.2637,0.2656,0.2652,0.2654,0.267,0.2672,0.267,0.2676,0.2677,0.2678,0.2684,0.2679,0.2685,0.2685,0.2683,0.2682,0.2681,0.2681,0.2681,0.2732,0.2734,0,0,0,0,0,0,0.2631,0.2636,0.2655,0.2657,0.2647,0.267,0.2672,0.2672,0.2677,0.2678,0.2684,0.2684,0.2685,0.2685,0.2684,0.2727,0.2681,0.2681,0.2681,0.2731,0.2733,0.2734,0,0,0,0,0,0,0.263,0.2632,0.2653,0.2648,0.2652,0.267,0.267,0.2672,0.269,0.2683,0.2683,0.27,0.2685,0.2684,0.2702,0.2725,0.2681,0.2681,0.2729,0.2731,0.2733,0.2786,0,0,0,0,0,0,0.2629,0.2632,0.2636,0.2648,0.2652,0.2671,0.267,0.2673,0.2694,0.2695,0.2697,0.2695,0.2685,0.2703,0.2702,0.2724,0.2681,0.2727,0.273,0.2733,0.2783,0.279,0.2796,0,0,0,0,0,0.2628,0.2632,0.2636,0.2638,0.2655,0.2672,0.2675,0.2687,0.2695,0.2703,0.2714,0.2696,0.272,0.2704,0.2703,0.2725,0.2726,0.2729,0.2733,0.278,0.2788,0.2796,0,0,0,0,0,0,0.2619,0.2634,0.2638,0.2644,0.266,0.2674,0.2689,0.2697,0.2713,0.272,0.2712,0.2712,0.274,0.2726,0.2709,0.275,0.2721,0.2724,0.2757,0.2765,0.2772,0.2793,0.2681,0,0,0,0,0,0.262,0.2629,0.2643,0.265,0.2661,0.2679,0.2691,0.2699,0.2713,0.2721,0.2724,0.2733,0.2751,0.2753,0.2762,0.2777,0.2802,0.2793,0.28,0.2805,0.2824,0.2891,0.2906,0.2745,0.2745,0.2745,0,0,0.2615,0.2628,0.2631,0.2649,0.2666,0.2688,0.2686,0.2708,0.273,0.2717,0.2749,0.2759,0.2764,0.279,0.28,0.2779,0.2864,0.281,0.2814,0.283,0.2896,0.2912,0.2926,0.2747,0.2747,0.2746,0,0,0.2619,0.2628,0.2641,0.2659,0.2688,0.2702,0.2712,0.2734,0.275,0.278,0.2785,0.2815,0.2825,0.2841,0.285,0.29,0.2904,0.2896,0.2939,0.3005,0.3019,0.3031,0.3083,0.31,0.2892,0.2892,0.2892,0,0.2615,0.2637,0.2648,0.2673,0.2696,0.2712,0.2739,0.2757,0.2781,0.2808,0.2797,0.2866,0.2857,0.2915,0.2927,0.2917,0.2951,0.2905,0.3015,0.3028,0.304,0.309,0.3108,0.2895,0.2894,0.2894,0.2894,0,0.2637,0.2657,0.2671,0.2709,0.2731,0.2758,0.2785,0.2812,0.2837,0.2862,0.2928,0.2936,0.2982,0.2978,0.2964,0.3045,0.3042,0.3022,0.2995,0.306,0.3107,0.3125,0.2899,0.2898,0.2897,0.2896,0,0,0.2615,0.2676,0.2678,0.2702,0.2758,0.2768,0.2824,0.2877,0.2923,0.2956,0.3025,0.3059,0.308,0.3093,0.3088,0.3128,0.3229,0.311,0.3112,0.3162,0.3377,0.3262,0.327,0.3233,0.3236,0.3239,0.3376,0,0.2633,0.2676,0.2712,0.2754,0.278,0.2825,0.2871,0.2919,0.2973,0.3036,0.308,0.3141,0.3119,0.3149,0.3194,0.3226,0.3279,0.3193,0.3306,0.331,0.3201,0.3288,0.302,0.311,0.3393,0.3396,0.3398,0,0.2647,0.2672,0.2719,0.2778,0.2796,0.2832,0.2918,0.2964,0.3064,0.3108,0.3197,0.3235,0.3321,0.328,0.3406,0.3357,0.3381,0.3395,0.3401,0.3289,0.3228,0.3092,0.3132,0.3428,0.3426,0.3423,0.3421,0,0.2613,0.2677,0.2713,0.2733,0.2803,0.2846,0.2897,0.2994,0.3049,0.3173,0.3236,0.3344,0.3406,0.3475,0.3512,0.3479,0.3633,0.359,0.3517,0.3509,0.33,0.3267,0.3689,0.3689,0.3689,0.3688,0.3688,0,0.2623,0.2633,0.2701,0.2711,0.2767,0.2828,0.2904,0.2981,0.3095,0.3172,0.3278,0.336,0.346,0.355,0.3572,0.3606,0.3697,0.3553,0.3547,0.3308,0.3276,0.3559,0.3541,0.3694,0.3692,0.3691,0.3691,0,0.2575,0.2617,0.2649,0.2724,0.2752,0.2794,0.2903,0.2954,0.308,0.3194,0.3244,0.3405,0.3522,0.3601,0.371,0.3671,0.3715,0.3698,0.3402,0.3357,0.3535,0.3519,0.3651,0.3649,0.3647,0.3645,0.3643,0,0.2548,0.2568,0.2642,0.2672,0.2713,0.2777,0.282,0.2936,0.302,0.321,0.3276,0.3425,0.3492,0.3614,0.3599,0.3635,0.3698,0.3382,0.3257,0.3556,0.3537,0.3525,0.3513,0.3012,0.3005,0.3,0.2996,0,0.2498,0.2535,0.256,0.2631,0.2679,0.2723,0.2822,0.2859,0.3004,0.3084,0.321,0.3269,0.3407,0.3311,0.3353,0.3333,0.3352,0.327,0.3698,0.3044,0.2959,0.2938,0.2946,0.2947,0.2952,0.2956,0.2958,0.296,0.2453,0.2478,0.2528,0.2588,0.2641,0.2671,0.2635,0.2736,0.2782,0.2866,0.3027,0.3027,0.3088,0.3008,0.2932,0.2884,0.3109,0.2962,0.2977,0.2999,0.2881,0.2794,0.2731,0.2734,0.2737,0.274,0.2742,0,0.24,0.2449,0.249,0.2525,0.2517,0.2603,0.2629,0.2542,0.2515,0.2651,0.2697,0.2501,0.2453,0.253,0.2384,0.2377,0.234,0.2275,0.2206,0.2258,0.2303,0.2146,0.1803,0.18,0.1797,0.1794,0,0,0.2384,0.2379,0.2404,0.2377,0.2419,0.2342,0.2313,0.2213,0.2235,0.2162,0.2172,0.2356,0.2466,0.2102,0.2056,0.1904,0.2059,0.1829,0.2592,0.2564,0.2604,0.272,0.254,0,0,0,0,0]},{"header":{"parameterUnit":"m.s-1","parameterCategory":2,"la1":30.2991,"la2":30.254,"lo1":-89.0895,"lo2":-89.0444,"dy":0.0017,"dx":0.0017,"nx":28,"ny":28,"refTime":"2023-04-22T21:00:00:Z","depth":"2","parameterNumber":3,"parameterNumberName":"V-component_of_CURRENTS"},"data":[0,0,0,0,0,0,0,0,0,0,0,0,0,0,0,0,0,0,0,0,0,0,0,0,0,0,0,0,0,0,0,0,0,0,0,0,0,0,0,0,0,0,0,0,0,0,0,0,0,0,0,0,0,0,0,0,0,0,0.0061,0.0061,0,0.0068,0.0068,0.0068,0.0056,0.0056,0.0055,0.0055,0.0048,0.0048,0.0048,0,0,0,0,0,0,0,0,0,0,0,0,0,0.0065,0.0065,0.0061,0.0061,0.0061,0.0068,0.0068,0.0068,0.0056,0.0056,0.0055,0.0055,0.0048,0.0048,0.0048,0,0,0,0,0,0,0,0,0,0,0,0,0,0.0067,0.0065,0.0061,0.0056,0.0056,0.0068,0.0068,0.0068,0.0056,0.0056,0.0055,0.0055,0.0048,0.0048,0.0048,0.0062,0,0,0.0049,0.0049,0,0,0,0,0,0,0,0,0.0067,0.0067,0.0057,0.0057,0.0056,0.006,0.0067,0.0065,0.0056,0.0056,0.0055,0.0054,0.0051,0.0051,0.0054,0.0062,0.0062,0.0049,0.005,0.005,0.005,0,0,0,0,0,0,0,0.0066,0.0066,0.0064,0.0057,0.0057,0.0063,0.0062,0.0067,0.0057,0.0056,0.0055,0.0056,0.0051,0.0054,0.0054,0.0061,0.0049,0.005,0.005,0.005,0.0058,0.0058,0,0,0,0,0,0,0.0065,0.0066,0.0064,0.0064,0.006,0.0063,0.0062,0.006,0.0057,0.0056,0.0057,0.0056,0.0054,0.0054,0.0054,0.0072,0.005,0.005,0.005,0.0058,0.0058,0.0058,0,0,0,0,0,0,0.0065,0.0064,0.0063,0.0065,0.0066,0.0063,0.0061,0.006,0.0063,0.0058,0.0056,0.006,0.0053,0.0053,0.0058,0.0071,0.005,0.005,0.0058,0.0058,0.0058,0.0106,0,0,0,0,0,0,0.0065,0.0064,0.0062,0.0065,0.0065,0.0081,0.0061,0.0061,0.0065,0.0063,0.0061,0.0059,0.0053,0.0058,0.0058,0.0071,0.0051,0.0058,0.0058,0.0058,0.0104,0.0108,0.0111,0,0,0,0,0,0.0065,0.0069,0.0062,0.0061,0.0062,0.0082,0.0084,0.008,0.0066,0.0078,0.0067,0.0059,0.0058,0.0058,0.0059,0.0072,0.0058,0.0058,0.0058,0.0103,0.0107,0.0111,0,0,0,0,0,0,0.0065,0.0068,0.006,0.0062,0.0075,0.0081,0.009,0.0084,0.0085,0.0079,0.0067,0.0066,0.0072,0.0063,0.0064,0.0071,0.0054,0.0054,0.0088,0.0092,0.0095,0.0116,0.0051,0,0,0,0,0,0.0065,0.007,0.0075,0.0078,0.0086,0.0087,0.0092,0.0091,0.0093,0.0092,0.0088,0.0078,0.0074,0.0076,0.0072,0.0084,0.0066,0.0088,0.0091,0.0094,0.0109,0.0085,0.0087,0.0058,0.0058,0.0058,0,0,0.0064,0.0067,0.0069,0.008,0.0087,0.0112,0.009,0.0105,0.0123,0.0092,0.0111,0.0092,0.0078,0.0087,0.0089,0.0083,0.0092,0.0094,0.0097,0.0111,0.0085,0.0088,0.0091,0.0058,0.0058,0.0058,0,0,0.0085,0.0073,0.0094,0.0109,0.0125,0.0128,0.0134,0.0143,0.0146,0.016,0.0135,0.0124,0.0127,0.0117,0.0112,0.013,0.0107,0.0123,0.0162,0.0138,0.0141,0.0143,0.0121,0.012,0.0127,0.0127,0.0127,0,0.0086,0.0111,0.0104,0.0136,0.0155,0.0139,0.0175,0.0178,0.0185,0.0193,0.0174,0.0163,0.0144,0.0153,0.0153,0.014,0.0121,0.0152,0.0143,0.0145,0.0146,0.0123,0.0122,0.013,0.0129,0.0129,0.0129,0,0.0135,0.0153,0.017,0.0202,0.022,0.0248,0.0255,0.0265,0.0257,0.0257,0.0262,0.023,0.0227,0.0209,0.0188,0.0189,0.0171,0.0149,0.0138,0.0152,0.0127,0.0125,0.0133,0.0132,0.0132,0.0131,0,0,0.0151,0.0196,0.0203,0.0236,0.026,0.0287,0.0311,0.0339,0.0363,0.0345,0.0375,0.0339,0.0314,0.0305,0.0269,0.0241,0.0221,0.0203,0.02,0.0189,0.017,0.0127,0.0121,0.0196,0.0196,0.0196,0.0147,0,0.0197,0.0268,0.0276,0.0344,0.0386,0.0383,0.0415,0.043,0.0431,0.0452,0.0407,0.0419,0.0354,0.0354,0.0314,0.0253,0.022,0.0237,0.0151,0.0149,0.0116,0.0118,0.0149,0.0105,0.0145,0.0145,0.0144,0,0.0252,0.0294,0.037,0.0432,0.045,0.0484,0.0536,0.0566,0.0574,0.0573,0.056,0.0528,0.0495,0.0432,0.0334,0.0349,0.0267,0.0205,0.0202,0.0148,0.0103,0.0096,0.01,0.0141,0.0141,0.0142,0.0142,0,0.0291,0.0362,0.0427,0.045,0.0511,0.0545,0.0579,0.0604,0.0652,0.0657,0.0687,0.0625,0.0619,0.0506,0.0374,0.0358,0.0258,0.022,0.0103,0.0099,0.0102,0.0098,0.0146,0.0146,0.0146,0.0146,0.0146,0,0.035,0.0402,0.0453,0.0494,0.0581,0.0602,0.0693,0.0708,0.0755,0.0833,0.076,0.0798,0.0637,0.056,0.0415,0.0259,0.0288,0.0116,0.0085,0.0118,0.0116,0.013,0.0129,0.0144,0.0145,0.0145,0.0145,0,0.0396,0.0424,0.0506,0.0576,0.0607,0.0674,0.0784,0.0851,0.0875,0.0974,0.0987,0.0939,0.0835,0.0656,0.0479,0.033,0.0173,0.0106,0.0154,0.0128,0.002,0.0022,-0.0022,-0.0024,-0.0026,-0.0027,-0.0028,0,0.0431,0.0477,0.057,0.0629,0.0669,0.0771,0.085,0.0908,0.1002,0.1072,0.1138,0.1058,0.1018,0.0728,0.0458,0.0196,0.0161,0.0043,0.0007,0.003,0.0004,0.0008,0.0012,0.0031,0.0031,0.003,0.003,0,0.0506,0.053,0.06,0.0715,0.0806,0.0921,0.1047,0.1134,0.1224,0.1287,0.1354,0.1315,0.1052,0.0787,0.0417,0.0241,0.0083,0.0024,0.0049,0.0062,0.0074,0.005,0.0054,0.0026,0.0026,0.0027,0.0027,0.0027,0.0562,0.062,0.0707,0.0818,0.0929,0.1069,0.1166,0.1298,0.1431,0.1522,0.1496,0.1426,0.1141,0.0655,0.0357,0.0043,0.0053,-0.0062,-0.0057,-0.0053,-0.0045,-0.0038,-0.0105,-0.0105,-0.0105,-0.0105,-0.0106,0,0.0643,0.0708,0.0809,0.0944,0.1067,0.1113,0.13,0.1377,0.1525,0.1587,0.1603,0.1312,0.1025,0.0697,0.0234,-0.0049,-0.0058,-0.014,-0.0079,-0.0073,-0.0069,-0.006,-0.0124,-0.0125,-0.0126,-0.0127,0,0,0.0691,0.0797,0.0841,0.1039,0.1135,0.1291,0.139,0.1485,0.156,0.1582,0.1547,0.1469,0.1101,0.076,0.0392,0.0135,0.0089,0.0078,0.0123,0.0244,0.0252,0.0008,0.0032,0,0,0,0,0]}],[{"header":{"parameterUnit":"m.s-1","parameterCategory":2,"la1":30.2991,"la2":30.254,"lo1":-89.0895,"lo2":-89.0444,"dy":0.0017,"dx":0.0017,"nx":28,"ny":28,"refTime":"2023-04-22T21:00:00:Z","depth":"4","parameterNumber":2,"parameterNumberName":"U-component_of_CURRENTS"},"data":[0,0,0,0,0,0,0,0,0,0,0,0,0,0,0,0,0,0,0,0,0,0,0,0,0,0,0,0,0,0,0,0,0,0,0,0,0,0,0,0,0,0,0,0,0,0,0,0,0,0,0,0,0,0,0,0,0,0,0.1632,0.1633,0,0.1668,0.1668,0.1668,0.1707,0.1708,0.1709,0.171,0.1764,0.1765,0.1766,0,0,0,0,0,0,0,0,0,0,0,0,0,0.1542,0.1543,0.1632,0.1633,0.1634,0.1668,0.1668,0.1668,0.1707,0.1708,0.1709,0.171,0.1764,0.1765,0.1766,0,0,0,0,0,0,0,0,0,0,0,0,0,0.1577,0.1544,0.1632,0.1659,0.1662,0.1668,0.1668,0.1668,0.1707,0.1708,0.1709,0.171,0.1764,0.1765,0.1766,0.1747,0,0,0.1769,0.177,0,0,0,0,0,0,0,0,0.1575,0.158,0.1654,0.1657,0.1661,0.1687,0.1657,0.1697,0.1706,0.1687,0.171,0.1711,0.1741,0.1744,0.1744,0.175,0.1752,0.1769,0.177,0.177,0.1771,0,0,0,0,0,0,0,0.1572,0.1578,0.1643,0.1655,0.1659,0.1651,0.1657,0.1664,0.1705,0.1689,0.1692,0.17,0.1743,0.1743,0.1745,0.1753,0.1769,0.177,0.1771,0.1771,0.1852,0.1854,0,0,0,0,0,0,0.1576,0.1576,0.1642,0.1645,0.1623,0.1652,0.1659,0.1675,0.1704,0.1711,0.1699,0.1702,0.174,0.1744,0.1748,0.1822,0.177,0.1771,0.1772,0.1851,0.1853,0.1854,0,0,0,0,0,0,0.1574,0.1582,0.1641,0.1613,0.162,0.1653,0.167,0.1675,0.1712,0.1713,0.1719,0.1736,0.1741,0.1746,0.1787,0.1821,0.1772,0.1773,0.1849,0.1851,0.1854,0.1909,0,0,0,0,0,0,0.1571,0.1581,0.1609,0.1614,0.1622,0.1665,0.1669,0.1675,0.1714,0.1719,0.1745,0.1749,0.1743,0.1786,0.1789,0.1821,0.1773,0.1847,0.185,0.1853,0.1906,0.1913,0.192,0,0,0,0,0,0.1568,0.1589,0.161,0.1619,0.1656,0.1666,0.167,0.1694,0.1715,0.1732,0.1757,0.175,0.1806,0.1788,0.1791,0.1824,0.1846,0.1849,0.1853,0.1902,0.1912,0.192,0,0,0,0,0,0,0.1564,0.1596,0.1619,0.1652,0.1672,0.1675,0.1697,0.1714,0.1746,0.1764,0.1766,0.1772,0.1824,0.1816,0.1796,0.1857,0.1826,0.183,0.1863,0.1872,0.1879,0.1877,0.1774,0,0,0,0,0,0.1577,0.1608,0.163,0.1661,0.1674,0.1695,0.1711,0.1728,0.1748,0.1765,0.1785,0.1809,0.1832,0.1847,0.1863,0.1891,0.1896,0.1917,0.1924,0.193,0.1931,0.1977,0.1988,0.1866,0.1866,0.1866,0,0,0.1584,0.1609,0.1627,0.1664,0.1683,0.1701,0.1708,0.174,0.1764,0.1765,0.1816,0.1839,0.1847,0.1885,0.1907,0.1887,0.1967,0.1934,0.1939,0.1937,0.1982,0.1993,0.2004,0.1868,0.1868,0.1867,0,0,0.1594,0.1638,0.166,0.1679,0.1718,0.173,0.1749,0.1776,0.1802,0.1845,0.186,0.1904,0.1932,0.1947,0.1956,0.2011,0.2008,0.2023,0.2053,0.2098,0.2108,0.2117,0.2138,0.2148,0.2021,0.2021,0.2021,0,0.1606,0.1639,0.1668,0.1688,0.1711,0.1748,0.1771,0.1794,0.1835,0.1864,0.1873,0.195,0.1959,0.2007,0.2026,0.2028,0.2046,0.2018,0.2107,0.2116,0.2125,0.2143,0.2154,0.2024,0.2024,0.2024,0.2023,0,0.1615,0.1656,0.1669,0.1715,0.1741,0.1769,0.1803,0.1846,0.1891,0.1915,0.1991,0.2012,0.2062,0.2071,0.2063,0.2131,0.2123,0.2115,0.2084,0.214,0.2156,0.2167,0.2029,0.2028,0.2027,0.2026,0,0,0.1603,0.1666,0.1676,0.1702,0.1762,0.1777,0.1836,0.189,0.1938,0.199,0.2052,0.2099,0.2134,0.2147,0.2158,0.2184,0.2256,0.2177,0.2178,0.2194,0.2349,0.2202,0.2198,0.2272,0.2275,0.2276,0.2336,0,0.1608,0.165,0.1686,0.1733,0.1756,0.1813,0.1858,0.1917,0.1978,0.2045,0.2094,0.2159,0.2156,0.2199,0.223,0.2258,0.2287,0.224,0.2294,0.2295,0.2155,0.2206,0.2283,0.2343,0.2345,0.2347,0.2348,0,0.1597,0.1634,0.1681,0.1748,0.1765,0.1806,0.1901,0.1946,0.2044,0.2096,0.2181,0.2226,0.2301,0.2282,0.2366,0.2343,0.2355,0.2358,0.2361,0.2208,0.2166,0.2276,0.2367,0.2365,0.2364,0.2363,0.2361,0,0.1554,0.1625,0.1669,0.169,0.177,0.1819,0.1877,0.1975,0.2022,0.2149,0.221,0.2301,0.2368,0.2407,0.2437,0.242,0.2502,0.2481,0.2355,0.2345,0.2434,0.2424,0.2532,0.2532,0.2532,0.2531,0.2531,0,0.1521,0.1555,0.166,0.1676,0.1739,0.1808,0.1884,0.1962,0.2068,0.2125,0.2246,0.2307,0.2407,0.2466,0.247,0.2444,0.2544,0.2364,0.2353,0.2456,0.2447,0.2441,0.243,0.2534,0.2533,0.2533,0.2532,0,0.1443,0.1516,0.1566,0.1675,0.1716,0.1763,0.1879,0.1919,0.2053,0.2139,0.219,0.234,0.2422,0.2485,0.2548,0.2477,0.2468,0.2431,0.2537,0.253,0.227,0.2262,0.2295,0.229,0.2286,0.2283,0.228,0,0.14,0.1421,0.1551,0.1589,0.1644,0.1726,0.177,0.19,0.1944,0.2134,0.2158,0.2306,0.2384,0.2362,0.2437,0.2439,0.2407,0.2382,0.2315,0.2262,0.2249,0.2246,0.2243,0.2274,0.2273,0.2272,0.2271,0,0.1309,0.1375,0.1417,0.1508,0.1572,0.1615,0.1701,0.1725,0.1867,0.2007,0.2084,0.2139,0.2224,0.2273,0.2294,0.2287,0.2386,0.234,0.2347,0.2284,0.2237,0.2227,0.2228,0.2257,0.2259,0.226,0.2261,0,0.1247,0.1261,0.134,0.1403,0.1469,0.1486,0.1547,0.1603,0.1669,0.1882,0.1903,0.2064,0.2203,0.2195,0.2212,0.2199,0.2161,0.2075,0.2095,0.2111,0.2021,0.1932,0.1853,0,0,0,0,0,0.1179,0.1186,0.1228,0.1281,0.1332,0.1383,0.1481,0.1544,0.1696,0.1699,0.1796,0.1869,0.1929,0.2013,0.1962,0.2119,0.2158,0.2048,0.2067,0.2182,0.2197,0.2107,0,0,0,0,0,0,0.1138,0.1171,0.1187,0.1155,0.1171,0.1213,0.1278,0.1386,0.1397,0.1572,0.1618,0.1748,0.1835,0.1939,0.1926,0.1946,0.1916,0.2144,0.2138,0.2173,0.2187,0.22,0.2113,0,0,0,0,0]},{"header":{"parameterUnit":"m.s-1","parameterCategory":2,"la1":30.2991,"la2":30.254,"lo1":-89.0895,"lo2":-89.0444,"dy":0.0017,"dx":0.0017,"nx":28,"ny":28,"refTime":"2023-04-22T21:00:00:Z","depth":"4","parameterNumber":3,"parameterNumberName":"V-component_of_CURRENTS"},"data":[0,0,0,0,0,0,0,0,0,0,0,0,0,0,0,0,0,0,0,0,0,0,0,0,0,0,0,0,0,0,0,0,0,0,0,0,0,0,0,0,0,0,0,0,0,0,0,0,0,0,0,0,0,0,0,0,0,0,0.0097,0.0097,0,0.0108,0.0108,0.0108,0.0114,0.0114,0.0114,0.0114,0.012,0.012,0.0121,0,0,0,0,0,0,0,0,0,0,0,0,0,0.0107,0.0106,0.0097,0.0097,0.0098,0.0108,0.0108,0.0108,0.0114,0.0114,0.0114,0.0114,0.012,0.012,0.0121,0,0,0,0,0,0,0,0,0,0,0,0,0,0.0109,0.0106,0.0097,0.0102,0.0102,0.0108,0.0108,0.0108,0.0114,0.0114,0.0114,0.0114,0.012,0.012,0.0121,0.0122,0,0,0.0121,0.0121,0,0,0,0,0,0,0,0,0.0108,0.0108,0.0101,0.0101,0.0102,0.0109,0.0113,0.0112,0.0114,0.011,0.0114,0.0114,0.0116,0.0116,0.0119,0.0123,0.0123,0.0121,0.0122,0.0122,0.0122,0,0,0,0,0,0,0,0.0108,0.0108,0.0102,0.0101,0.0101,0.0111,0.0111,0.0113,0.0113,0.011,0.0111,0.0111,0.0116,0.0119,0.0119,0.0123,0.0121,0.0122,0.0122,0.0122,0.0114,0.0114,0,0,0,0,0,0,0.0105,0.0108,0.0101,0.0102,0.0105,0.0111,0.0111,0.0107,0.0113,0.0114,0.0111,0.0111,0.0118,0.0119,0.0119,0.0125,0.0122,0.0122,0.0122,0.0114,0.0114,0.0114,0,0,0,0,0,0,0.0105,0.0104,0.0101,0.0105,0.0105,0.011,0.0106,0.0107,0.0113,0.0114,0.0115,0.0116,0.0118,0.0119,0.0124,0.0125,0.0122,0.0122,0.0115,0.0114,0.0114,0.0133,0,0,0,0,0,0,0.0105,0.0104,0.0101,0.0105,0.0105,0.0111,0.0106,0.0108,0.0113,0.0114,0.0118,0.0119,0.0118,0.0123,0.0124,0.0125,0.0122,0.0115,0.0115,0.0114,0.0133,0.0133,0.0134,0,0,0,0,0,0.0105,0.0104,0.0101,0.01,0.01,0.0111,0.0113,0.0117,0.0114,0.0121,0.0119,0.0119,0.0119,0.0124,0.0124,0.0126,0.0116,0.0115,0.0114,0.0133,0.0133,0.0134,0,0,0,0,0,0,0.0103,0.0105,0.0101,0.0099,0.0107,0.0112,0.0119,0.0119,0.0124,0.0124,0.0121,0.0122,0.0124,0.012,0.0125,0.0119,0.0114,0.0114,0.0128,0.0129,0.0129,0.0136,0.0123,0,0,0,0,0,0.0101,0.0103,0.0106,0.0105,0.011,0.0114,0.0118,0.0122,0.0125,0.0128,0.0129,0.0125,0.012,0.0122,0.0119,0.0122,0.01,0.0119,0.0119,0.012,0.0124,0.0086,0.0083,0.0111,0.0111,0.0111,0,0,0.0099,0.0101,0.0101,0.0105,0.0112,0.0126,0.0117,0.0128,0.0138,0.0127,0.0141,0.013,0.012,0.0121,0.0121,0.012,0.0099,0.0119,0.0119,0.0123,0.0085,0.0082,0.008,0.011,0.011,0.0111,0,0,0.0108,0.01,0.0111,0.012,0.0132,0.0135,0.0139,0.0147,0.015,0.0159,0.0147,0.0135,0.014,0.0127,0.0121,0.0121,0.0102,0.0119,0.013,0.0093,0.009,0.0088,0.0052,0.0046,0.012,0.012,0.012,0,0.0107,0.012,0.0116,0.0135,0.0148,0.0141,0.0163,0.0163,0.017,0.0173,0.0167,0.0152,0.0141,0.0131,0.0128,0.0122,0.01,0.0132,0.0094,0.0091,0.0088,0.0052,0.0045,0.0121,0.0121,0.0121,0.012,0,0.0132,0.0142,0.0152,0.0172,0.0183,0.0201,0.0203,0.0208,0.0206,0.0205,0.0198,0.0174,0.0167,0.0152,0.0142,0.0117,0.0106,0.0099,0.0095,0.0087,0.0049,0.0042,0.0122,0.0122,0.0121,0.0121,0,0,0.0135,0.0165,0.0169,0.0193,0.0207,0.0225,0.0233,0.0245,0.0258,0.024,0.025,0.0216,0.0199,0.019,0.0165,0.0126,0.0078,0.0107,0.0104,0.0076,-0.0004,-0.0003,-0.0011,0.0066,0.0065,0.0064,-0.0024,0,0.0161,0.0205,0.021,0.0254,0.0281,0.0279,0.0294,0.0298,0.0296,0.03,0.0256,0.0258,0.0215,0.0215,0.0165,0.0107,0.0061,0.0103,0.0005,0.0002,0.0008,-0.0018,0.0061,-0.0029,-0.0031,-0.0032,-0.0033,0,0.0191,0.0219,0.0268,0.031,0.0322,0.0344,0.0373,0.0387,0.0376,0.0374,0.0349,0.0321,0.0267,0.0234,0.0115,0.0145,0.0073,0.0016,0.0011,0.0003,-0.001,-0.0019,-0.0046,-0.0045,-0.0044,-0.0043,-0.0042,0,0.0216,0.0262,0.0306,0.0322,0.0361,0.0384,0.0407,0.0413,0.044,0.0426,0.044,0.0364,0.0345,0.0235,0.0114,0.0117,-0.0023,-0.0032,-0.0104,-0.0105,-0.0087,-0.0083,-0.0123,-0.0122,-0.0122,-0.0122,-0.0122,0,0.0249,0.0287,0.0326,0.0356,0.0418,0.0428,0.0487,0.0495,0.0512,0.0551,0.0489,0.049,0.0345,0.0252,0.0127,-0.0012,-0.0016,-0.0108,-0.013,-0.0078,-0.0072,-0.0093,-0.0088,-0.0125,-0.0125,-0.0124,-0.0123,0,0.0278,0.03,0.036,0.0411,0.0438,0.0486,0.0561,0.0596,0.0606,0.0652,0.0655,0.0585,0.0463,0.0303,0.0124,0.0024,-0.012,-0.017,-0.0105,-0.012,-0.0182,-0.0175,-0.0255,-0.0256,-0.0256,-0.0257,-0.0257,0,0.0299,0.0331,0.041,0.0455,0.0488,0.0561,0.0612,0.0646,0.069,0.071,0.0734,0.064,0.057,0.0316,0.0138,-0.0107,-0.014,-0.0215,-0.0203,-0.0184,-0.0197,-0.0189,-0.0182,-0.0258,-0.0259,-0.0259,-0.0259,0,0.034,0.0366,0.0417,0.051,0.0578,0.0656,0.0733,0.0773,0.0811,0.0821,0.0803,0.0679,0.0541,0.033,0.0137,-0.0038,-0.0168,-0.0222,-0.0222,-0.0212,-0.0189,-0.0199,-0.0191,-0.0261,-0.0261,-0.0261,-0.026,0,0.0372,0.0413,0.0478,0.0563,0.0646,0.0725,0.0766,0.0814,0.0856,0.0872,0.086,0.0711,0.0623,0.0366,0.0187,0.0013,-0.0027,-0.008,-0.0088,-0.0088,-0.0016,0.0038,0.0013,0,0,0,0,0,0.0401,0.0449,0.0525,0.0613,0.0692,0.0745,0.0832,0.0861,0.09,0.0897,0.0884,0.0754,0.0507,0.0398,0.0224,0.0163,-0.0069,-0.0047,-0.0136,-0.0273,-0.0271,-0.0216,0,0,0,0,0,0,0.0421,0.0492,0.0527,0.0634,0.0698,0.0791,0.0848,0.0878,0.0877,0.0887,0.0754,0.0707,0.0457,0.06,0.0217,0.0166,0.0086,-0.0161,-0.0164,-0.0275,-0.0272,-0.027,-0.0213,0,0,0,0,0]}]]